Location: Dammartin
(48.9032°N, 1.6195°E)
Time: 13:34:58
(UTC+00:00)

YUBILEINY - Pass Details

Date: 15 December 2023
Orbit: 1479 x 1508 km, 82.5° (Epoch: 02 March)

Event Time Altitude Azimuth Distance (km) Brightness Sun altitude
Rises 06:59:14 0° 152° (SSE) 4,629 ? -6.5°
Reaches altitude 10° 07:02:24 10° 144° (SE) 3,649 ? -6.1°
Maximum altitude 07:10:04 36° 83° (E) 2,225 ? -5.0°
Drops below altitude 10° 07:17:42 10° 22° (NNE) 3,648 ? -3.9°
Sets 07:20:52 0° 14° (NNE) 4,629 ? -3.5°
